Regional Weather Roundup
Issued by NWS

Home | Current Version | Previous Version | Graphics & Text | Print | Product List | Glossary On
Versions: 1 2 3 4 5 6 7 8 9 10 11 12 13 14 15 16 17 18 19 20 21 22 23 24 25 26 27 28 29 30 31 32 33 34 35 36 37 38 39 40 41 42 43 44 45 46 47 48 49 50
000
ASUS43 KFSD 210702
RWRSD

WEATHER ROUNDUP FOR SOUTH DAKOTA
NATIONAL WEATHER SERVICE SIOUX FALLS SD
100 AM CST SUN DEC 21 2014

NOTE: "FAIR" INDICATES FEW OR NO CLOUDS BELOW 12,000 FEET WITH NO
SIGNIFICANT WEATHER AND/OR OBSTRUCTIONS TO VISIBILITY.


SDZ001>005-009-010-012>017-210800-
NORTHWEST AND NORTH CENTRAL SOUTH DAKOTA

CITY           SKY/WX    TMP DP  RH WIND       PRES   REMARKS
BUFFALO          N/A     30  23  75 S7        29.66F WCI  23
FAITH            N/A     32  26  78 S8        29.76F WCI  25
MOBRIDGE       CLOUDY    27  24  89 SE8       29.77F WCI  19
$$

SDZ012>016-024>037-041>051-057-063-072>074-210800-
SOUTHWEST AND SOUTH CENTRAL SOUTH DAKOTA

CITY           SKY/WX    TMP DP  RH WIND       PRES   REMARKS
RAPID CTY ARPT MOCLDY    29  24  82 SE5       29.74F WCI  24
PIERRE         CLOUDY    24  21  88 E3        29.80F
CUSTER         PTCLDY    29  23  78 W8        29.75F WCI  21
ELLSWORTH AFB  MOCLDY    32  25  76 CALM      29.73F
PHILIP         CLOUDY    31  25  78 W7        29.79F WCI  24
PINE RIDGE     MOCLDY    30  25  81 CALM      29.80F
WINNER         CLOUDY    34  26  72 S6        29.82F WCI  29
$$

SDZ004>011-016>023-039-040-210800-
NORTHEAST SOUTH DAKOTA

CITY           SKY/WX    TMP DP  RH WIND       PRES   REMARKS
ABERDEEN       CLOUDY    30  28  92 S16       29.86F WCI  19
WATERTOWN      CLOUDY    28  27  96 S13G22    29.86F FOG     WCI  17
SISSETON         N/A     31  29  92 SW10      29.87F WCI  22
$$

SDZ017-020-022-023-036>040-048>070-210800-
SOUTHEAST SOUTH DAKOTA

CITY           SKY/WX    TMP DP  RH WIND       PRES   REMARKS
SIOUX FALLS    FOG       30  30 100 S10       29.93F VSB 3/4 WCI  21
HURON          CLOUDY    31  29  92 S10       29.87F WCI  22
MITCHELL       CLOUDY    32  31  96 S14       29.89F FOG     WCI  22
YANKTON        CLOUDY    32  30  93 SE8       29.93F WCI  25
$$

ABBREVIATIONS USED IN REMARKS
   TC - TEMPERATURE IN CELSIUS
  WCI - WIND CHILL INDEX
   HX - HEAT INDEX
  VSB - VISIBILITY




USA.gov is the U.S. government's official web portal to all federal, state and local government web resources and services.